Weather History for Martinsville, VA

Change the Weather History Date:

Sunday, November 24, 2013

  Actual Average (KGSO) Record (KGSO)
Temperature  
Mean Temperature 28 °F 47 °F  
Max Temperature 34 °F 58 °F 77 °F (1913)
Min Temperature 20 °F 37 °F 12 °F (1970)
Degree Days  
Heating Degree Days 37 18  
Month to date heating degree days 334  
Since 1 July heating degree days 567  
Cooling Degree Days 0 0  
Month to date cooling degree days 0  
Year to date cooling degree days 1480  
Moisture  
Dew Point 6 °F    
Average Humidity 38    
Maximum Humidity 61    
Minimum Humidity 23    
Precipitation  
Precipitation 0.00 in 0.10 in 1.58 in (1983)
Month to date precipitation 2.49  
Year to date precipitation 38.60  
Snow  
Snow 0.00 in 0.00 in 0.60 in (1950)
Month to date snowfall 0.1  
Since 1 July snowfall 0.1  
Since 1 September snowfall 0.1  
Snow Depth -    
Sea Level Pressure  
Sea Level Pressure 30.44 in    
Wind  
Wind Speed 12 mph (NNW)    
Max Wind Speed 23 mph    
Max Gust Speed 29 mph    
Visibility 10 miles    
Events      
T = Trace of Precipitation, MM = Missing Value Source: NWS Daily Summary

Daily Weather History Graph

Daily Weather History Graph

Search for Another Location

Airport:

Trip Planner

Search our weather history database for the weather conditions in past years. The results will help you decide how hot, cold, wet, or windy it might be!

Date:

Astronomy

Nov. 24, 2013 Rise Set
Actual Time 7:07 AM EST 5:06 PM EST
Civil Twilight 6:39 AM EST 5:34 PM EST
Nautical Twilight 6:07 AM EST 6:05 PM EST
Astronomical Twilight 5:36 AM EST 6:36 PM EST
Moon 11:25 PM EST (11/24) 11:58 AM EST (11/24)
Length of Visible Light 10h 55m
Length of Day
9h 59m
Waning Gibbous, 61% of the Moon is Illuminated
Nov 24
Waning Gibbous
Nov 25
Last Quarter
Dec 2
New
Dec 9
First Quarter
Dec 17
Full

Hourly Weather History & Observations

Time (EST) Temp. Windchill Dew Point Humidity Pressure Visibility Wind Dir Wind Speed Gust Speed Precip Events Conditions
12:15 AM 35.2 °F 25.8 °F 15.1 °F 44% 30.27 in 10.0 mi NNW 15.0 mph 21.9 mph N/A   Mostly Cloudy
12:35 AM 34.9 °F 28.3 °F 14.0 °F 42% 30.28 in 10.0 mi NNW 8.1 mph - N/A   Overcast
12:55 AM 34.2 °F 25.2 °F 14.0 °F 44% 30.28 in 10.0 mi NNW 12.7 mph 21.9 mph N/A   Overcast
1:15 AM 33.4 °F 23.9 °F 12.0 °F 41% 30.28 in 10.0 mi North 13.8 mph 25.3 mph N/A   Overcast
1:35 AM 32.9 °F 22.0 °F 12.2 °F 42% 30.28 in 10.0 mi NNW 17.3 mph 20.7 mph N/A   Mostly Cloudy
1:55 AM 32.2 °F 22.3 °F 11.3 °F 42% 30.28 in 10.0 mi NNW 13.8 mph - N/A   Scattered Clouds
2:15 AM 32.0 °F 21.6 °F 11.5 °F 43% 30.30 in 10.0 mi NNW 15.0 mph 24.2 mph N/A   Mostly Cloudy
2:35 AM 31.6 °F 20.0 °F 12.4 °F 45% 30.30 in 10.0 mi NNW 18.4 mph 25.3 mph N/A   Mostly Cloudy
2:55 AM 31.1 °F 19.3 °F 10.8 °F 43% 30.30 in 10.0 mi NNW 18.4 mph 24.2 mph N/A   Mostly Cloudy
3:35 AM 30.2 °F 19.3 °F 11.3 °F 45% 30.33 in 10.0 mi NNW 15.0 mph 18.4 mph N/A   Mostly Cloudy
3:55 AM 30.0 °F 16.6 °F 10.6 °F 44% 30.32 in 10.0 mi NNW 23.0 mph 28.8 mph N/A   Mostly Cloudy
4:15 AM 29.1 °F 17.5 °F 9.3 °F 44% 30.33 in 10.0 mi NNW 16.1 mph 23.0 mph N/A   Scattered Clouds
4:35 AM 28.8 °F 17.9 °F 9.3 °F 44% 30.34 in 10.0 mi NNW 13.8 mph 26.5 mph N/A   Clear
4:55 AM 28.4 °F 19.1 °F 8.6 °F 43% 30.35 in 10.0 mi NNW 10.4 mph 17.3 mph N/A   Scattered Clouds
5:15 AM 27.7 °F 20.4 °F 9.1 °F 46% 30.35 in 10.0 mi NW 6.9 mph - N/A   Mostly Cloudy
5:35 AM 27.5 °F 18.0 °F 9.1 °F 46% 30.36 in 10.0 mi NNW 10.4 mph - N/A   Scattered Clouds
5:55 AM 27.5 °F 18.0 °F 9.1 °F 46% 30.37 in 10.0 mi NNW 10.4 mph - N/A   Mostly Cloudy
6:15 AM 27.3 °F 19.1 °F 10.0 °F 48% 30.38 in 10.0 mi NW 8.1 mph - N/A   Mostly Cloudy
6:35 AM 27.3 °F 15.2 °F 11.3 °F 51% 30.39 in 10.0 mi NW 16.1 mph 21.9 mph N/A   Overcast
6:55 AM 26.4 °F 15.5 °F 10.4 °F 51% 30.40 in 10.0 mi NW 12.7 mph - N/A   Overcast
7:15 AM 25.7 °F 14.6 °F 10.2 °F 52% 30.42 in 10.0 mi NW 12.7 mph - N/A   Scattered Clouds
7:35 AM 25.7 °F 16.4 °F 9.7 °F 51% 30.43 in 10.0 mi NNW 9.2 mph - N/A   Clear
7:55 AM 26.4 °F 14.5 °F 9.5 °F 49% 30.44 in 10.0 mi NW 15.0 mph 19.6 mph N/A   Clear
8:15 AM 27.0 °F 15.2 °F 8.6 °F 46% 30.45 in 10.0 mi NW 15.0 mph 20.7 mph N/A   Clear
8:35 AM 27.5 °F 17.4 °F 7.7 °F 43% 30.46 in 10.0 mi NW 11.5 mph - N/A   Clear
8:55 AM 27.5 °F 15.4 °F 6.8 °F 42% 30.47 in 10.0 mi NW 16.1 mph 23.0 mph N/A   Clear
9:15 AM 28.0 °F 16.5 °F 6.1 °F 39% 30.47 in 10.0 mi North 15.0 mph 20.7 mph N/A   Clear
9:35 AM 28.9 °F 18.2 °F 6.4 °F 39% 30.48 in 10.0 mi NNW 13.8 mph 23.0 mph N/A   Clear
9:55 AM 29.3 °F 17.0 °F 5.7 °F 37% 30.49 in 10.0 mi NW 18.4 mph 21.9 mph N/A   Clear
10:15 AM 29.7 °F 18.6 °F 4.6 °F 35% 30.50 in 10.0 mi NNW 15.0 mph 23.0 mph N/A   Clear
10:35 AM 30.2 °F 19.8 °F 3.9 °F 33% 30.50 in 10.0 mi NNW 13.8 mph 21.9 mph N/A   Clear
10:55 AM 30.9 °F 20.2 °F 4.6 °F 33% 30.50 in 10.0 mi NW 15.0 mph 19.6 mph N/A   Clear
11:15 AM 31.3 °F 22.1 °F 3.6 °F 31% 30.49 in 10.0 mi NNW 11.5 mph 23.0 mph N/A   Clear
11:35 AM 31.6 °F 21.2 °F 3.2 °F 30% 30.49 in 10.0 mi NNW 15.0 mph - N/A   Clear
11:55 AM 32.0 °F 22.5 °F 3.0 °F 29% 30.48 in 10.0 mi NNW 12.7 mph 21.9 mph N/A   Clear
12:15 PM 32.2 °F 22.3 °F 3.0 °F 29% 30.47 in 10.0 mi North 13.8 mph 19.6 mph N/A   Clear
12:35 PM 32.5 °F 22.7 °F 2.8 °F 28% 30.46 in 10.0 mi NNW 13.8 mph 19.6 mph N/A   Clear
12:55 PM 33.3 °F 23.7 °F 3.2 °F 28% 30.46 in 10.0 mi NNW 13.8 mph 19.6 mph N/A   Clear
1:15 PM 33.4 °F 24.8 °F 1.9 °F 26% 30.45 in 10.0 mi NW 11.5 mph 17.3 mph N/A   Clear
1:35 PM 33.8 °F 25.3 °F 1.6 °F 26% 30.45 in 10.0 mi NNW 11.5 mph 20.7 mph N/A   Clear
1:55 PM 34.3 °F 25.9 °F 1.8 °F 25% 30.45 in 10.0 mi WNW 11.5 mph 16.1 mph N/A   Clear
2:15 PM 34.2 °F 26.2 °F 0.7 °F 24% 30.44 in 10.0 mi NW 10.4 mph 17.3 mph N/A   Clear
2:35 PM 34.2 °F 25.7 °F 0.9 °F 24% 30.44 in 10.0 mi NW 11.5 mph 18.4 mph N/A   Clear
2:55 PM 34.5 °F 26.7 °F 0.5 °F 24% 30.44 in 10.0 mi NNW 10.4 mph 16.1 mph N/A   Clear
3:15 PM 34.3 °F 27.7 °F -0.0 °F 23% 30.45 in 10.0 mi NW 8.1 mph 17.3 mph N/A   Clear
3:35 PM 34.3 °F 25.5 °F 0.3 °F 24% 30.45 in 10.0 mi NNW 12.7 mph 17.3 mph N/A   Clear
3:55 PM 33.8 °F 25.3 °F -0.2 °F 24% 30.45 in 10.0 mi NNW 11.5 mph - N/A   Clear
4:15 PM 32.9 °F 23.7 °F -1.3 °F 23% 30.45 in 10.0 mi NNW 12.7 mph - N/A   Clear
4:35 PM 32.0 °F 22.5 °F -0.4 °F 25% 30.45 in 10.0 mi NW 12.7 mph 18.4 mph N/A   Clear
4:55 PM 31.1 °F 24.5 °F -0.9 °F 25% 30.45 in 10.0 mi NNW 6.9 mph - N/A   Clear
5:15 PM 30.9 °F 22.8 °F -1.5 °F 25% 30.46 in 10.0 mi NNW 9.2 mph - N/A   Clear
5:35 PM 29.8 °F 23.9 °F -0.6 °F 27% 30.47 in 10.0 mi NNW 5.8 mph - N/A   Clear
5:55 PM 28.8 °F 23.7 °F -0.0 °F 29% 30.47 in 10.0 mi NW 4.6 mph - N/A   Clear
6:15 PM 28.4 °F 19.7 °F 0.5 °F 30% 30.48 in 10.0 mi NW 9.2 mph - N/A   Clear
6:35 PM 28.4 °F 21.2 °F 0.1 °F 30% 30.48 in 10.0 mi NNW 6.9 mph - N/A   Clear
6:55 PM 28.0 °F 22.8 °F 0.3 °F 30% 30.49 in 10.0 mi NW 4.6 mph - N/A   Clear
7:15 PM 27.0 °F 18.7 °F 1.4 °F 33% 30.50 in 10.0 mi NW 8.1 mph - N/A   Clear
7:35 PM 27.5 °F 20.2 °F 1.6 °F 33% 30.50 in 10.0 mi NW 6.9 mph - N/A   Clear
7:55 PM 27.0 °F 21.6 °F 1.6 °F 34% 30.51 in 10.0 mi NW 4.6 mph - N/A   Clear
8:15 PM 25.7 °F - 3.2 °F 38% 30.51 in 10.0 mi Calm Calm - N/A   Clear
8:35 PM 25.7 °F 20.1 °F 3.4 °F 38% 30.51 in 10.0 mi NNW 4.6 mph - N/A   Clear
8:55 PM 24.6 °F 17.7 °F 5.2 °F 44% 30.52 in 10.0 mi NNW 5.8 mph - N/A   Clear
9:15 PM 25.0 °F 20.7 °F 4.6 °F 42% 30.53 in 10.0 mi NW 3.5 mph - N/A   Clear
9:35 PM 23.2 °F - 5.7 °F 47% 30.54 in 10.0 mi Calm Calm - N/A   Clear
9:55 PM 23.0 °F 18.4 °F 7.5 °F 52% 30.54 in 10.0 mi NW 3.5 mph - N/A   Clear
10:15 PM 22.1 °F - 8.1 °F 55% 30.54 in 10.0 mi Calm Calm - N/A   Clear
10:35 PM 22.5 °F - 7.7 °F 53% 30.55 in 10.0 mi Calm Calm - N/A   Clear
10:55 PM 21.6 °F 13.0 °F 8.4 °F 57% 30.54 in 10.0 mi NW 6.9 mph - N/A   Clear
11:15 PM 22.5 °F - 6.8 °F 51% 30.55 in 10.0 mi Calm Calm - N/A   Clear
11:35 PM 21.7 °F - 8.6 °F 57% 30.55 in 10.0 mi Calm Calm - N/A   Clear
11:55 PM 20.7 °F - 9.1 °F 61% 30.55 in 10.0 mi Calm Calm - N/A   Clear